Regional Weather Roundup
Issued by NWS Kansas City/Pleasant Hill, MO

Home | Current Version | Previous Version | Graphics & Text | Print | Product List | Glossary Off
Versions: 1 2 3 4 5 6 7 8 9 10 11 12 13 14 15 16 17 18 19 20 21 22 23 24 25 26 27 28

000
ASUS43 KEAX 191910
RWREAX

WEATHER ROUNDUP FOR EASTERN KANSAS AND NORTHWEST MISSOURI
NATIONAL WEATHER SERVICE KANSAS CITY/PLEASANT HILL MO
100 PM CST SUN FEB 19 2017

KSZ040-057-103>105-MOZ028-029-037-043-192000-
...KANSAS CITY METROPOLITAN AREA...

CITY           SKY/WX    TMP DP  RH WIND       PRES   REMARKS
K.C. INTL      PTSUNNY   70  53  54 S16       29.94F
K.C. DOWNTOWN  CLOUDY    70  52  52 S10       29.93F
LEES SUMMIT    SUNNY     69  53  56 S12       29.95F
OLATHE - IXD   MOSUNNY   69  53  56 S9        29.94F
OLATHE - OJC   MOSUNNY   68  55  63 S13G21    29.93F
LAWRENCE       CLOUDY    69  55  60 SE14      29.93F

$$

MOZ001>008-011>017-020>025-030>033-038>040-044>046-053-054-192000-
...NORTHERN AND CENTRAL MISSOURI...

CITY           SKY/WX    TMP DP  RH WIND       PRES   REMARKS
ST. JOSEPH     MOSUNNY   69  54  58 S13       29.92F
WARRENSBURG    SUNNY     70  46  43 S13G20    29.96F
WHITEMAN AFB   SUNNY     73  49  42 S14G22    29.95F
CLINTON        SUNNY     73  48  40 S9        29.97F
SEDALIA        SUNNY     76  48  37 S15G24    29.98F
WARSAW         NOT AVBL
CHILLICOTHE      N/A     69  52  54 S7G16     29.96F
KIRKSVILLE     MOSUNNY   70  51  51 S12       29.99F

$$

MOZ041-047>049-056>058-063>065-088>090-097-192000-
...EASTERN AND SOUTHERN MISSOURI...

CITY           SKY/WX    TMP DP  RH WIND       PRES   REMARKS
ST. LOUIS INTL MOSUNNY   70  51  51 E5        30.04F
SPIRIT OF STL  SUNNY     71  48  43 VRB7      30.02F
COLUMBIA       SUNNY     72  49  44 SE13      29.99F
JEFFERSON CITY SUNNY     70  51  51 E7        29.99F
ROLLA          SUNNY     73  48  41 S14G22    30.00F
OSAGE BEACH    SUNNY     74  48  39 S10       30.00F
SPRINGFIELD    SUNNY     71  54  54 SE14      29.98F
BRANSON        MOSUNNY   72  57  60 SE9       30.01F
JOPLIN         SUNNY     73  57  57 S13       29.96F
WEST PLAINS    PTSUNNY   62  56  80 S9        30.07F

$$

IAZ060-094-KSZ022-034>040-054-083-096-NEZ052-066-093-192000-
...KANSAS...SOUTHEAST NEBRASKA AND IOWA...

CITY           SKY/WX    TMP DP  RH WIND       PRES   REMARKS
TOPEKA         MOSUNNY   66  54  65 S14G21    29.91F
MANHATTAN      CLOUDY    59  52  77 S16       29.89F
EMPORIA        CLOUDY    56  54  93 SE15      29.92F FOG
CHANUTE        CLOUDY    65  55  70 S18       29.95F
WICHITA        CLOUDY    59  54  83 S14       29.89F
OMAHA          CLOUDY    66  48  52 S21       29.83F
LINCOLN        PTSUNNY   68  50  52 S20G25    29.83F
FALLS CITY     CLOUDY    69  52  54 S15G24    29.88F
LAMONI         MOSUNNY   67  51  56 SE13      29.93F
DES MOINES     PTSUNNY   71  47  42 S15       29.91F

$$





USA.gov is the U.S. government's official web portal to all federal, state and local government web resources and services.